Location: Cheyres
(46.8153°N, 6.7877°E)
Time: 04:22:58
(UTC+00:00)

ISS - Pass Details

Date: 11 May 2021
Orbit: 417 x 422 km, 51.6° (Epoch: 18 June)

Event Time Altitude Azimuth Distance (km) Brightness Sun altitude
Exits shadow 23:16:53 14° 60° (ENE) 1,267 -1.1 -25.0°
Drops below altitude 10° 23:17:29 10° 61° (ENE) 1,509 -0.7 -25.0°
Sets 23:19:37 0° 65° (ENE) 2,377 0.4 -25.0°
